Time,TemperatureF,DewpointF,PressureIn,WindDirection,WindDirectionDegrees,WindSpeedMPH,WindSpeedGustMPH,Humidity,HourlyPrecipIn,Conditions,Clouds,dailyrainin,SoftwareType,DateUTC
2013-08-08 00:02:00,79.6,74.0,30.01,SE,140,0.0,-999.0,83,-99.99,,,0.01,weatherlink.com 1.10,2013-08-08 04:02:00,
2013-08-08 00:17:00,79.8,74.0,30.00,SE,136,0.0,-999.0,82,-99.99,,,0.01,weatherlink.com 1.10,2013-08-08 04:17:00,
2013-08-08 00:32:00,79.8,74.0,30.00,SSE,147,0.0,-999.0,83,-99.99,,,0.01,weatherlink.com 1.10,2013-08-08 04:32:00,
2013-08-08 00:47:00,79.8,75.0,30.00,SE,140,0.0,-999.0,84,-99.99,,,0.01,weatherlink.com 1.10,2013-08-08 04:47:00,
2013-08-08 01:02:00,79.8,75.0,30.00,SSE,157,1.0,-999.0,84,-99.99,,,0.01,weatherlink.com 1.10,2013-08-08 05:02:00,
2013-08-08 01:17:00,79.6,74.0,30.00,SE,136,0.0,-999.0,84,-99.99,,,0.01,weatherlink.com 1.10,2013-08-08 05:17:00,
2013-08-08 01:32:00,79.6,74.0,30.00,SE,143,0.0,-999.0,83,-99.99,,,0.01,weatherlink.com 1.10,2013-08-08 05:32:00,
2013-08-08 01:47:00,79.8,74.0,30.00,SSE,147,4.0,-999.0,83,-99.99,,,0.00,weatherlink.com 1.10,2013-08-08 05:47:00,
2013-08-08 02:02:00,79.8,75.0,30.00,SSE,151,0.0,-999.0,84,-99.99,,,0.00,weatherlink.com 1.10,2013-08-08 06:02:00,
2013-08-08 02:17:00,79.8,75.0,29.99,SE,127,0.0,-999.0,85,-99.99,,,0.00,weatherlink.com 1.10,2013-08-08 06:17:00,
2013-08-08 02:32:00,79.8,75.0,29.99,SE,130,6.0,-999.0,85,-99.99,,,0.00,weatherlink.com 1.10,2013-08-08 06:32:00,
2013-08-08 02:47:00,79.6,75.0,29.99,SE,145,0.0,-999.0,85,-99.99,,,0.00,weatherlink.com 1.10,2013-08-08 06:47:00,
2013-08-08 03:02:00,79.6,75.0,29.98,SSE,158,0.0,-999.0,85,-99.99,,,0.00,weatherlink.com 1.10,2013-08-08 07:02:00,
2013-08-08 03:17:00,79.6,74.0,29.99,SE,140,0.0,-999.0,84,-99.99,,,0.00,weatherlink.com 1.10,2013-08-08 07:17:00,
2013-08-08 03:32:00,79.6,74.0,29.99,SE,140,0.0,-999.0,84,-99.99,,,0.00,weatherlink.com 1.10,2013-08-08 07:32:00,
2013-08-08 03:47:00,79.6,75.0,29.99,SE,145,0.0,-999.0,85,-99.99,,,0.00,weatherlink.com 1.10,2013-08-08 07:47:00,
2013-08-08 04:02:00,79.8,75.0,29.98,SE,143,0.0,-999.0,85,-99.99,,,0.00,weatherlink.com 1.10,2013-08-08 08:02:00,
2013-08-08 04:17:00,79.8,75.0,29.98,SE,143,0.0,-999.0,86,-99.99,,,0.00,weatherlink.com 1.10,2013-08-08 08:17:00,
2013-08-08 04:32:00,79.6,76.0,29.98,ESE,107,0.0,-999.0,87,-99.99,,,0.00,weatherlink.com 1.10,2013-08-08 08:32:00,
2013-08-08 04:47:00,79.6,76.0,29.98,ESE,119,0.0,-999.0,87,-99.99,,,0.00,weatherlink.com 1.10,2013-08-08 08:47:00,
2013-08-08 05:02:00,79.6,76.0,29.98,SE,133,0.0,-999.0,87,-99.99,,,0.00,weatherlink.com 1.10,2013-08-08 09:02:00,
2013-08-08 05:17:00,79.4,76.0,29.98,SE,136,0.0,-999.0,88,-99.99,,,0.00,weatherlink.com 1.10,2013-08-08 09:17:00,
2013-08-08 05:32:00,79.4,76.0,29.98,ESE,121,0.0,-999.0,88,-99.99,,,0.00,weatherlink.com 1.10,2013-08-08 09:32:00,
2013-08-08 05:47:00,79.4,76.0,29.98,SSE,160,0.0,-999.0,88,-99.99,,,0.00,weatherlink.com 1.10,2013-08-08 09:47:00,
2013-08-08 06:02:00,79.2,75.0,29.98,ESE,120,0.0,-999.0,88,-99.99,,,0.00,weatherlink.com 1.10,2013-08-08 10:02:00,
2013-08-08 06:17:00,79.4,76.0,29.98,East,99,0.0,-999.0,88,-99.99,,,0.00,weatherlink.com 1.10,2013-08-08 10:17:00,
2013-08-08 06:32:00,79.4,76.0,29.98,ESE,112,0.0,-999.0,88,-99.99,,,0.00,weatherlink.com 1.10,2013-08-08 10:32:00,
2013-08-08 06:47:00,79.6,76.0,29.98,SE,124,0.0,-999.0,88,-99.99,,,0.00,weatherlink.com 1.10,2013-08-08 10:47:00,
2013-08-08 07:02:00,79.8,76.0,29.99,ESE,104,4.0,-999.0,88,-99.99,,,0.00,weatherlink.com 1.10,2013-08-08 11:02:00,
2013-08-08 07:17:00,80.3,76.0,29.99,SE,134,1.0,-999.0,87,-99.99,,,0.00,weatherlink.com 1.10,2013-08-08 11:17:00,
2013-08-08 07:32:00,80.3,76.0,29.99,SE,127,0.0,-999.0,86,-99.99,,,0.00,weatherlink.com 1.10,2013-08-08 11:32:00,
2013-08-08 07:47:00,81.1,76.0,29.99,ESE,121,0.0,-999.0,85,-99.99,,,0.00,weatherlink.com 1.10,2013-08-08 11:47:00,
2013-08-08 08:02:00,80.9,76.0,29.99,ESE,121,0.0,-999.0,85,-99.99,,,0.00,weatherlink.com 1.10,2013-08-08 12:02:00,
2013-08-08 08:17:00,81.1,77.0,30.00,South,169,2.0,-999.0,86,-99.99,,,0.00,weatherlink.com 1.10,2013-08-08 12:17:00,
2013-08-08 08:32:00,80.9,76.0,30.00,ESE,117,0.0,-999.0,85,-99.99,,,0.00,weatherlink.com 1.10,2013-08-08 12:32:00,
2013-08-08 08:47:00,81.2,76.0,30.00,ESE,123,0.0,-999.0,83,-99.99,,,0.00,weatherlink.com 1.10,2013-08-08 12:47:00,
2013-08-08 09:02:00,81.2,75.0,30.00,ESE,113,0.0,-999.0,82,-99.99,,,0.00,weatherlink.com 1.10,2013-08-08 13:02:00,
2013-08-08 09:17:00,82.8,76.0,30.00,ESE,104,6.0,-999.0,81,-99.99,,,0.00,weatherlink.com 1.10,2013-08-08 13:17:00,
2013-08-08 09:32:00,82.4,77.0,30.00,ESE,103,0.0,-999.0,83,-99.99,,,0.00,weatherlink.com 1.10,2013-08-08 13:32:00,
2013-08-08 09:47:00,83.4,77.0,30.00,SE,128,1.0,-999.0,82,-99.99,,,0.00,weatherlink.com 1.10,2013-08-08 13:47:00,
2013-08-08 10:02:00,83.6,77.0,30.00,SE,140,0.0,-999.0,81,-99.99,,,0.00,weatherlink.com 1.10,2013-08-08 14:02:00,
2013-08-08 10:17:00,84.3,78.0,30.00,SSE,164,0.0,-999.0,81,-99.99,,,0.00,weatherlink.com 1.10,2013-08-08 14:17:00,
2013-08-08 10:32:00,84.5,78.0,30.01,South,189,0.0,-999.0,80,-99.99,,,0.00,weatherlink.com 1.10,2013-08-08 14:32:00,
2013-08-08 10:47:00,84.1,77.0,30.01,SSW,196,0.0,-999.0,79,-99.99,,,0.00,weatherlink.com 1.10,2013-08-08 14:47:00,
2013-08-08 11:02:00,83.8,77.0,30.01,SSW,206,0.0,-999.0,80,-99.99,,,0.00,weatherlink.com 1.10,2013-08-08 15:02:00,
2013-08-08 11:17:00,83.2,76.0,30.01,SW,216,0.0,-999.0,80,-99.99,,,0.00,weatherlink.com 1.10,2013-08-08 15:17:00,
2013-08-08 11:32:00,82.8,76.0,30.01,SW,216,0.0,-999.0,81,-99.99,,,0.00,weatherlink.com 1.10,2013-08-08 15:32:00,
2013-08-08 11:47:00,82.6,76.0,30.01,SW,226,0.0,-999.0,81,-99.99,,,0.00,weatherlink.com 1.10,2013-08-08 15:47:00,
2013-08-08 12:02:00,82.6,76.0,30.01,SW,226,0.0,-999.0,81,-99.99,,,0.00,weatherlink.com 1.10,2013-08-08 16:02:00,
2013-08-08 12:17:00,82.8,76.0,30.00,SW,234,0.0,-999.0,81,-99.99,,,0.00,weatherlink.com 1.10,2013-08-08 16:17:00,
2013-08-08 12:32:00,84.5,78.0,30.00,SSW,199,0.0,-999.0,80,-99.99,,,0.00,weatherlink.com 1.10,2013-08-08 16:32:00,
2013-08-08 12:47:00,85.1,77.0,30.00,SSE,167,0.0,-999.0,76,-99.99,,,0.00,weatherlink.com 1.10,2013-08-08 16:47:00,
2013-08-08 13:02:00,84.9,76.0,30.00,South,189,0.0,-999.0,75,-99.99,,,0.00,weatherlink.com 1.10,2013-08-08 17:02:00,
2013-08-08 13:17:00,85.5,77.0,30.00,SSW,205,0.0,-999.0,75,-99.99,,,0.00,weatherlink.com 1.10,2013-08-08 17:17:00,
2013-08-08 13:32:00,85.5,77.0,29.99,SSW,196,0.0,-999.0,75,-99.99,,,0.00,weatherlink.com 1.10,2013-08-08 17:32:00,
2013-08-08 13:47:00,85.5,77.0,30.00,SSW,205,0.0,-999.0,75,-99.99,,,0.00,weatherlink.com 1.10,2013-08-08 17:47:00,
2013-08-08 14:02:00,85.3,77.0,30.00,SSW,203,0.0,-999.0,76,-99.99,,,0.00,weatherlink.com 1.10,2013-08-08 18:02:00,
2013-08-08 14:17:00,85.5,77.0,30.00,South,184,0.0,-999.0,75,-99.99,,,0.00,weatherlink.com 1.10,2013-08-08 18:17:00,
2013-08-08 14:32:00,85.9,77.0,29.99,SSE,168,1.0,-999.0,74,-99.99,,,0.00,weatherlink.com 1.10,2013-08-08 18:32:00,
2013-08-08 14:47:00,84.7,76.0,29.98,South,189,0.0,-999.0,76,-99.99,,,0.00,weatherlink.com 1.10,2013-08-08 18:47:00,
2013-08-08 15:02:00,84.1,77.0,29.99,WSW,240,0.0,-999.0,79,-99.99,,,0.00,weatherlink.com 1.10,2013-08-08 19:02:00,
2013-08-08 15:17:00,85.3,77.0,29.98,SSW,203,0.0,-999.0,77,-99.99,,,0.00,weatherlink.com 1.10,2013-08-08 19:17:00,
2013-08-08 15:32:00,85.9,78.0,29.99,SW,233,0.0,-999.0,76,-99.99,,,0.00,weatherlink.com 1.10,2013-08-08 19:32:00,
2013-08-08 15:47:00,85.9,77.0,29.98,WSW,250,2.0,-999.0,75,-99.99,,,0.00,weatherlink.com 1.10,2013-08-08 19:47:00,
2013-08-08 16:02:00,86.7,78.0,29.98,WSW,237,0.0,-999.0,74,-99.99,,,0.00,weatherlink.com 1.10,2013-08-08 20:02:00,
2013-08-08 16:17:00,86.3,77.0,29.98,SW,234,0.0,-999.0,73,-99.99,,,0.00,weatherlink.com 1.10,2013-08-08 20:17:00,
2013-08-08 16:32:00,85.3,77.0,29.98,SW,222,0.0,-999.0,77,-99.99,,,0.00,weatherlink.com 1.10,2013-08-08 20:32:00,
2013-08-08 16:47:00,85.1,77.0,29.97,SW,222,0.0,-999.0,77,-99.99,,,0.00,weatherlink.com 1.10,2013-08-08 20:47:00,
2013-08-08 17:02:00,84.9,77.0,29.97,SSE,154,0.0,-999.0,78,-99.99,,,0.00,weatherlink.com 1.10,2013-08-08 21:02:00,
2013-08-08 17:17:00,85.1,78.0,29.98,South,184,0.0,-999.0,79,-99.99,,,0.00,weatherlink.com 1.10,2013-08-08 21:17:00,
2013-08-08 17:32:00,85.1,77.0,29.98,South,171,0.0,-999.0,76,-99.99,,,0.00,weatherlink.com 1.10,2013-08-08 21:32:00,
2013-08-08 18:02:00,84.9,77.0,29.97,SW,216,4.0,-999.0,77,-99.99,,,0.00,weatherlink.com 1.10,2013-08-08 22:02:00,
2013-08-08 18:17:00,84.5,77.0,29.97,SSW,203,0.0,-999.0,78,-99.99,,,0.00,weatherlink.com 1.10,2013-08-08 22:17:00,
2013-08-08 18:32:00,84.1,77.0,29.96,SW,222,0.0,-999.0,78,-99.99,,,0.00,weatherlink.com 1.10,2013-08-08 22:32:00,
2013-08-08 18:47:00,84.0,77.0,29.96,SW,216,0.0,-999.0,78,-99.99,,,0.00,weatherlink.com 1.10,2013-08-08 22:47:00,
2013-08-08 19:32:00,82.6,76.0,29.96,SW,233,0.0,-999.0,81,-99.99,,,0.00,weatherlink.com 1.10,2013-08-08 23:32:00,
2013-08-08 19:47:00,82.4,77.0,29.97,SW,229,0.0,-999.0,83,-99.99,,,0.00,weatherlink.com 1.10,2013-08-08 23:47:00,
2013-08-08 20:02:00,82.4,77.0,29.97,SSW,193,0.0,-999.0,83,-99.99,,,0.00,weatherlink.com 1.10,2013-08-09 00:02:00,
2013-08-08 20:17:00,82.2,77.0,29.97,SW,227,0.0,-999.0,83,-99.99,,,0.00,weatherlink.com 1.10,2013-08-09 00:17:00,
2013-08-08 20:47:00,82.0,77.0,29.98,SW,215,0.0,-999.0,84,-99.99,,,0.00,weatherlink.com 1.10,2013-08-09 00:47:00,
2013-08-08 21:02:00,82.0,77.0,29.99,SW,217,0.0,-999.0,85,-99.99,,,0.00,weatherlink.com 1.10,2013-08-09 01:02:00,
2013-08-08 21:47:00,81.8,77.0,30.00,SSW,203,2.0,-999.0,86,-99.99,,,0.00,weatherlink.com 1.10,2013-08-09 01:47:00,
2013-08-08 22:02:00,81.4,77.0,30.01,SW,227,0.0,-999.0,86,-99.99,,,0.00,weatherlink.com 1.10,2013-08-09 02:02:00,
2013-08-08 22:17:00,81.6,77.0,30.01,SW,219,0.0,-999.0,86,-99.99,,,0.00,weatherlink.com 1.10,2013-08-09 02:17:00,
2013-08-08 22:32:00,81.4,77.0,30.01,SSW,198,0.0,-999.0,87,-99.99,,,0.00,weatherlink.com 1.10,2013-08-09 02:32:00,
2013-08-08 22:47:00,81.4,77.0,30.01,SSW,193,0.0,-999.0,87,-99.99,,,0.00,weatherlink.com 1.10,2013-08-09 02:47:00,
2013-08-08 23:02:00,81.2,77.0,30.01,SSW,203,0.0,-999.0,88,-99.99,,,0.00,weatherlink.com 1.10,2013-08-09 03:02:00,
2013-08-08 23:32:00,81.2,77.0,30.00,SSW,193,0.0,-999.0,88,-99.99,,,0.00,weatherlink.com 1.10,2013-08-09 03:32:00,
2013-08-08 23:47:00,81.2,77.0,30.00,SSW,196,0.0,-999.0,88,-99.99,,,0.00,weatherlink.com 1.10,2013-08-09 03:47:00,